Location: B�rgermoos
(47.6500°N, 9.0667°E)
Time: 08:37:42
(UTC+00:00)

A-11 Canister half - Pass Details

Date: 10 August 2021
Orbit: 1526 x 1683 km, 47.3° (Epoch: 20 September)

Event Time Altitude Azimuth Distance (km) Brightness Sun altitude
Rises 06:53:25 0° 201° (SSW) 4,890 11.5 25.5°
Reaches altitude 10° 06:57:00 10° 192° (SSW) 3,919 11.1 26.1°
Maximum altitude 07:05:27 32° 135° (SE) 2,606 11.4 27.5°
Drops below altitude 10° 07:13:56 10° 77° (ENE) 3,943 12.5 28.9°
Sets 07:17:31 0° 69° (ENE) 4,924 12.5 29.5°
